Regional Weather Roundup
Issued by NWS Cleveland, OH

Home | Current Version | Previous Version | Graphics & Text | Print | Product List | Glossary On
Versions: 1 2 3 4 5 6 7 8 9 10 11 12 13 14 15 16 17 18 19 20 21 22 23 24 25 26 27 28 29 30 31 32 33 34 35 36 37 38 39 40 41 42 43 44 45 46 47 48 49 50
000
ASUS41 KCLE 181910
RWRCLE
OHIO REGIONAL WEATHER ROUNDUP
NATIONAL WEATHER SERVICE WILMINGTON, OH
300 PM EDT WED OCT 18 2017

NOTE: "FAIR" INDICATES FEW OR NO CLOUDS BELOW 12,000 FEET WITH NO
SIGNIFICANT WEATHER AND/OR OBSTRUCTIONS TO VISIBILITY.

OHZ001>008-015>018-024>027-034-035-043-044-182000-
   NORTHWEST OHIO

CITY           SKY/WX    TMP DP  RH WIND       PRES   REMARKS
DEFIANCE       FAIR      68  40  35 SW12      30.19F
FINDLAY        FAIR      70  40  33 S15G23    30.20F
TOLEDO EXPRESS FAIR      70  42  36 SW15      30.18F
TOLEDO EXEC    FAIR      70  40  33 SW14G22   30.19F
LIMA           FAIR      67  41  38 S13       30.21F
$$

OHZ009>014-019>023-028>033-038-089-182000-
   NORTHEAST OHIO

CITY           SKY/WX    TMP DP  RH WIND       PRES   REMARKS
CLE-HOPKINS    FAIR      70  43  37 S14       30.23F
CLE-LAKEFRONT  FAIR      70  37  29 S16       30.20F
CUY CO. ARPT   SUNNY     68  43  40 S12       30.26
LORAIN-ELYRIA  FAIR      68  38  33 S12       30.22F
ASHTABULA      FAIR      68  42  38 S14       30.23F
AKRON-CANTON   FAIR      68  41  37 SW13      30.25F
WOOSTER        FAIR      67  42  40 SW8       30.25F
MANSFIELD      FAIR      68  39  34 S13       30.23F
YOUNGSTOWN     FAIR      68  41  37 S9G18     30.25F
$$

OHZ042-051>053-060>062-070>072-077>081-182000-
  SOUTHWEST OHIO

CITY           SKY/WX    TMP DP  RH WIND       PRES   REMARKS
CINC-COVINGTON FAIR      68  46  45 S8        30.24F
CINC-LUNKEN    FAIR      69  47  45 S9        30.25F
HAMILTON       FAIR      71  44  37 VRB5      30.25F
DAYTON         FAIR      66  44  45 S12       30.24F
WRIGHT-PAT AFB FAIR      69  39  34 S10       30.23F
DAYTON GENERAL FAIR      66  41  40 S13       30.24F
WILMINGTON     FAIR      68  42  38 S10       30.25F
$$

OHZ036-037-039>041-045>050-054>059-063>069-073>076-082>088-182000-
  CENTRAL AND SOUTHEAST OHIO

CITY           SKY/WX    TMP DP  RH WIND       PRES   REMARKS
COLUMBUS       FAIR      68  43  40 S12       30.25F
OSU AIRPORT    FAIR      67  44  43 S12       30.24F
BOLTON FIELD   SUNNY     68  43  40 S8        30.26F
RICKENBACK AFB FAIR      67  41  37 S8        30.25F
NEWARK         FAIR      69  37  30 SE7       30.25F
MARION         FAIR      68  38  33 S15G23    30.23F
LANCASTER      FAIR      67  44  43 SW6       30.26F
ZANESVILLE     FAIR      68  40  35 SW8       30.26F
NEW PHILLY     FAIR      69  41  36 VRB7      30.27F
$$




USA.gov is the U.S. government's official web portal to all federal, state and local government web resources and services.